FW0954 Weather Reports


time (UTC)temp
C
wind
direction
speed
KPH
gust
KPH
rain 1hr
cm
rain 24hr
cm
rain mn
cm
humidity
%
barometer
mb
20260905230502 38 109 0.0 8.0 0.00 0.00 0.00 48 1010.9
20260905230002 38 112 0.0 8.0 0.00 0.00 0.00 47 1010.9
20260905225502 38 107 0.0 1.6 0.00 0.00 0.00 47 1010.8
20260905225001 38 84 0.0 3.2 0.00 0.00 0.00 47 1010.9
20260905224502 38 81 0.0 4.8 0.00 0.00 0.00 47 1010.8
20260905224002 38 96 0.0 4.8 0.00 0.00 0.00 47 1010.8
20260905223502 38 117 1.6 4.8 0.00 0.00 0.00 48 1010.7
20260905223001 38 110 1.6 4.8 0.00 0.00 0.00 47 1010.8
20260905222501 38 86 0.0 4.8 0.00 0.00 0.00 49 1010.7
20260905222001 38 68 0.0 3.2 0.00 0.00 0.00 48 1010.7
20260905221502 38 81 0.0 3.2 0.00 0.00 0.00 48 1010.8
20260905221002 38 66 0.0 3.2 0.00 0.00 0.00 48 1010.8
20260905220502 38 87 0.0 4.8 0.00 0.00 0.00 48 1010.8
20260905220002 38 109 0.0 4.8 0.00 0.00 0.00 48 1010.9
20260905215502 38 106 0.0 3.2 0.00 0.00 0.00 47 1010.9
20260905215002 39 102 0.0 3.2 0.00 0.00 0.00 46 1011.0
20260905214502 39 179 0.0 4.8 0.00 0.00 0.00 47 1011.1
20260905214003 38 143 0.0 4.8 0.00 0.00 0.00 46 1011.0
20260905213002 38 120 0.0 4.8 0.00 0.00 0.00 48 1011.1
20260905212002 38 99 0.0 4.8 0.00 0.00 0.00 46 1011.2
20260905211502 38 121 0.0 4.8 0.00 0.00 0.00 46 1011.2
20260905211002 38 105 0.0 4.8 0.00 0.00 0.00 47 1011.3
20260905210502 38 85 0.0 4.8 0.00 0.00 0.00 48 1011.3
20260905210002 38 102 1.6 4.8 0.00 0.00 0.00 46 1011.4
20260905205502 38 124 0.0 4.8 0.00 0.00 0.00 47 1011.5
20260905204502 38 122 0.0 4.8 0.00 0.00 0.00 48 1011.5
20260905204002 38 112 1.6 4.8 0.00 0.00 0.00 49 1011.5
20260905203502 38 81 1.6 4.8 0.00 0.00 0.00 49 1011.7
20260905203002 38 90 0.0 4.8 0.00 0.00 0.00 49 1011.9
20260905202502 38 97 0.0 4.8 0.00 0.00 0.00 48 1011.9
20260905201002 37 90 0.0 6.4 0.00 0.00 0.00 51 1012.0
20260905200501 37 66 0.0 4.8 0.00 0.00 0.00 51 1012.0
20260905200002 37 71 1.6 4.8 0.00 0.00 0.00 50 1012.1
20260905195502 37 81 1.6 4.8 0.00 0.00 0.00 50 1012.1
20260905195001 37 115 1.6 6.4 0.00 0.00 0.00 50 1012.1
20260905194503 37 115 1.6 8.0 0.00 0.00 0.00 50 1012.2
20260905194002 37 115 1.6 9.7 0.00 0.00 0.00 50 1012.3
20260905193002 37 71 1.6 6.4 0.00 0.00 0.00 49 1012.5
20260905192502 38 76 1.6 6.4 0.00 0.00 0.00 49 1012.6
20260905191502 37 121 1.6 6.4 0.00 0.00 0.00 50 1012.7
20260905191002 38 170 1.6 6.4 0.00 0.00 0.00 49 1013.0
20260905190502 37 184 1.6 6.4 0.00 0.00 0.00 51 1013.1
20260905190002 37 185 1.6 9.7 0.00 0.00 0.00 50 1013.2
20260905185502 37 183 1.6 9.7 0.00 0.00 0.00 50 1013.2
20260905185002 37 151 1.6 8.0 0.00 0.00 0.00 51 1013.5
20260905184502 37 131 0.0 8.0 0.00 0.00 0.00 51 1013.5
20260905183502 37 73 1.6 6.4 0.00 0.00 0.00 52 1013.7
20260905183002 37 86 1.6 6.4 0.00 0.00 0.00 52 1013.8
20260905182503 37 82 1.6 6.4 0.00 0.00 0.00 52 1013.9
20260905182002 36 100 1.6 9.7 0.00 0.00 0.00 53 1014.0
20260905181503 36 116 1.6 9.7 0.00 0.00 0.00 53 1014.0
20260905181003 36 130 1.6 8.0 0.00 0.00 0.00 53 1014.1
20260905180503 37 145 1.6 6.4 0.00 0.00 0.00 52 1014.2
20260905180003 36 120 1.6 6.4 0.00 0.00 0.00 54 1014.2
20260905175502 36 88 0.0 3.2 0.00 0.00 0.00 55 1014.3
20260905175002 36 107 1.6 6.4 0.00 0.00 0.00 55 1014.4
20260905174003 36 73 1.6 6.4 0.00 0.00 0.00 56 1014.5
20260905173503 35 77 1.6 6.4 0.00 0.00 0.00 56 1014.5
20260905173003 35 92 1.6 6.4 0.00 0.00 0.00 57 1014.5
20260905172503 35 119 1.6 6.4 0.00 0.00 0.00 59 1014.6
20260905172002 35 122 1.6 6.4 0.00 0.00 0.00 58 1014.8
20260905171503 35 116 1.6 6.4 0.00 0.00 0.00 58 1014.7
20260905171003 35 109 0.0 4.8 0.00 0.00 0.00 59 1014.7
20260905170503 35 96 0.0 3.2 0.00 0.00 0.00 60 1014.8
20260905170003 35 101 1.6 4.8 0.00 0.00 0.00 60 1014.8
20260905165502 35 101 0.0 4.8 0.00 0.00 0.00 61 1014.8
20260905165002 34 90 0.0 3.2 0.00 0.00 0.00 62 1014.8
20260905164502 34 71 0.0 3.2 0.00 0.00 0.00 62 1014.9
20260905163503 34 114 0.0 6.4 0.00 0.00 0.00 63 1015.0
20260905163002 33 85 0.0 6.4 0.00 0.00 0.00 64 1015.0
20260905162502 33 114 1.6 6.4 0.00 0.00 0.00 64 1015.1
20260905162003 33 125 1.6 8.0 0.00 0.00 0.00 64 1015.0
20260905161502 33 130 1.6 8.0 0.00 0.00 0.00 65 1015.0
20260905161003 33 127 1.6 6.4 0.00 0.00 0.00 64 1014.9
20260905160503 33 124 0.0 6.4 0.00 0.00 0.00 66 1015.0
20260905160003 33 139 0.0 1.6 0.00 0.00 0.00 67 1015.0
20260905155003 33 110 0.0 3.2 0.00 0.00 0.00 67 1015.0
20260905154503 33 259 0.0 3.2 0.00 0.00 0.00 69 1015.0
20260905154003 32 267 1.6 4.8 0.00 0.00 0.00 66 1015.2
20260905153002 32 242 0.0 4.8 0.00 0.00 0.00 68 1014.9
20260905152502 32 275 0.0 6.4 0.00 0.00 0.00 68 1015.0
20260905152003 32 270 1.6 6.4 0.00 0.00 0.00 69 1014.9
20260905151502 32 266 1.6 6.4 0.00 0.00 0.00 69 1014.9
20260905151002 31 280 1.6 8.0 0.00 0.00 0.00 70 1014.8
20260905150503 31 286 1.6 8.0 0.00 0.00 0.00 71 1014.7
20260905150003 31 281 1.6 8.0 0.00 0.00 0.00 72 1014.8
20260905145502 31 280 1.6 6.4 0.00 0.00 0.00 72 1014.8
20260905145002 31 282 0.0 4.8 0.00 0.00 0.00 72 1014.7
20260905144502 30 273 0.0 4.8 0.00 0.00 0.00 74 1014.7
20260905144002 30 270 1.6 4.8 0.00 0.00 0.00 75 1014.7
20260905143503 30 276 1.6 4.8 0.00 0.00 0.00 75 1014.7
20260905143003 30 280 1.6 4.8 0.00 0.00 0.00 75 1014.7
20260905142503 29 288 0.0 4.8 0.00 0.00 0.00 76 1014.8
20260905142003 29 288 0.0 4.8 0.00 0.00 0.00 75 1014.9
20260905141503 30 256 0.0 4.8 0.00 0.00 0.00 75 1014.7
20260905141003 29 216 0.0 3.2 0.00 0.00 0.00 76 1014.8
20260905140004 28 196 0.0 1.6 0.00 0.00 0.00 77 1014.8
20260905135502 28 193 0.0 1.6 0.00 0.00 0.00 79 1014.8
20260905135002 28 197 0.0 3.2 0.00 0.00 0.00 79 1014.7
20260905134503 27 201 0.0 3.2 0.00 0.00 0.00 80 1014.7
20260905134003 27 0 0.0 0.0 0.00 0.00 0.00 81 1014.7
20260905133502 26 0 0.0 0.0 0.00 0.00 0.00 83 1014.6
20260905133002 26 0 0.0 0.0 0.00 0.00 0.00 84 1014.5
20260905132502 26 203 0.0 1.6 0.00 0.00 0.00 85 1014.4
20260905131503 25 204 0.0 3.2 0.00 0.00 0.00 85 1014.4
20260905131003 25 203 0.0 3.2 0.00 0.00 0.00 86 1014.4
20260905130503 25 197 0.0 3.2 0.00 0.00 0.00 86 1014.3
20260905130003 25 195 0.0 4.8 0.00 0.00 0.00 86 1014.2
20260905125503 25 187 1.6 4.8 0.00 0.00 0.00 87 1014.2
20260905125003 25 183 1.6 4.8 0.00 0.00 0.00 87 1014.0
20260905124503 24 196 0.0 4.8 0.00 0.00 0.00 88 1014.0
20260905124002 24 209 0.0 3.2 0.00 0.00 0.00 88 1014.1
20260905123503 24 0 0.0 0.0 0.00 0.00 0.00 88 1014.1
20260905122503 24 0 0.0 0.0 0.00 0.00 0.00 88 1014.1
20260905122002 24 0 0.0 0.0 0.00 0.00 0.00 88 1014.1
20260905121503 24 0 0.0 0.0 0.00 0.00 0.00 88 1014.1
20260905121003 24 0 0.0 0.0 0.00 0.00 0.00 88 1014.1
20260905120003 24 0 0.0 0.0 0.00 0.00 0.00 87 1014.1
20260905115503 24 0 0.0 0.0 0.00 0.00 0.00 88 1014.0
20260905115003 24 0 0.0 0.0 0.00 0.00 0.00 87 1014.0
20260905114503 24 0 0.0 0.0 0.00 0.00 0.00 87 1014.1
20260905114002 24 0 0.0 0.0 0.00 0.00 0.00 87 1014.0
20260905113503 24 0 0.0 0.0 0.00 0.00 0.00 88 1014.0
20260905113003 24 0 0.0 0.0 0.00 0.00 0.00 88 1014.0
20260905112003 24 0 0.0 0.0 0.00 0.00 0.00 88 1014.1
20260905111503 24 0 0.0 0.0 0.00 0.00 0.00 88 1014.0
20260905111003 24 0 0.0 0.0 0.00 0.00 0.00 88 1013.9
20260905110503 24 0 0.0 0.0 0.00 0.00 0.00 87 1014.0
20260905110003 24 0 0.0 0.0 0.00 0.00 0.00 87 1014.0
20260905105502 24 0 0.0 0.0 0.00 0.00 0.00 87 1013.9
20260905105003 24 0 0.0 0.0 0.00 0.00 0.00 87 1013.9
20260905104503 24 0 0.0 0.0 0.00 0.00 0.00 87 1013.8
20260905104003 24 0 0.0 0.0 0.00 0.00 0.00 87 1013.8
20260905103003 25 0 0.0 0.0 0.00 0.00 0.00 87 1013.8
20260905102503 25 0 0.0 0.0 0.00 0.00 0.00 87 1013.8
20260905102003 25 0 0.0 0.0 0.00 0.00 0.00 87 1013.8
20260905101003 25 0 0.0 0.0 0.00 0.00 0.00 87 1013.9
20260905100502 25 0 0.0 0.0 0.00 0.00 0.00 86 1013.8
20260905100003 25 0 0.0 0.0 0.00 0.00 0.00 86 1013.8
20260905095002 25 0 0.0 0.0 0.00 0.00 0.00 86 1013.7
20260905094503 25 0 0.0 0.0 0.00 0.00 0.00 86 1013.8
20260905094003 25 0 0.0 0.0 0.00 0.00 0.00 86 1013.8
20260905093003 25 0 0.0 0.0 0.00 0.00 0.00 85 1013.7
20260905092503 25 0 0.0 0.0 0.00 0.00 0.00 85 1013.7
20260905092003 25 0 0.0 0.0 0.00 0.00 0.00 84 1013.7
20260905091503 25 0 0.0 0.0 0.00 0.00 0.00 84 1013.6
20260905091003 25 0 0.0 0.0 0.00 0.00 0.00 84 1013.6
20260905090503 25 0 0.0 0.0 0.00 0.00 0.00 83 1013.7
20260905085503 25 0 0.0 0.0 0.00 0.00 0.00 83 1013.6
20260905084503 26 0 0.0 0.0 0.00 0.00 0.00 82 1013.4
20260905084003 26 0 0.0 0.0 0.00 0.00 0.00 82 1013.4
20260905083503 26 0 0.0 0.0 0.00 0.00 0.00 82 1013.2
20260905083003 26 0 0.0 0.0 0.00 0.00 0.00 81 1013.2
20260905082503 26 0 0.0 0.0 0.00 0.00 0.00 81 1013.1
20260905082003 26 0 0.0 0.0 0.00 0.00 0.00 80 1013.1
20260905081503 26 0 0.0 0.0 0.00 0.00 0.00 80 1013.1
20260905081003 26 210 0.0 1.6 0.00 0.00 0.00 80 1013.1
20260905080503 26 210 0.0 1.6 0.00 0.00 0.00 81 1013.1
20260905080004 26 0 0.0 0.0 0.00 0.00 0.00 80 1013.1
20260905075004 26 0 0.0 0.0 0.00 0.00 0.00 80 1013.3
20260905074504 26 0 0.0 0.0 0.00 0.00 0.00 80 1013.2
20260905074004 26 209 0.0 1.6 0.00 0.00 0.00 80 1013.4
20260905073503 26 209 0.0 1.6 0.00 0.00 0.00 79 1013.5
20260905073003 27 0 0.0 0.0 0.00 0.00 0.00 79 1013.6
20260905072504 27 0 0.0 0.0 0.00 0.00 0.00 79 1013.7
20260905072004 27 0 0.0 0.0 0.00 0.00 0.00 79 1013.7
20260905071504 27 0 0.0 0.0 0.00 0.00 0.00 79 1013.8
20260905071003 27 0 0.0 0.0 0.00 0.00 0.00 78 1013.8
20260905070003 27 0 0.0 0.0 0.00 0.00 0.00 78 1013.8
20260905065503 27 0 0.0 0.0 0.00 0.00 0.00 77 1013.9
20260905065003 27 0 0.0 0.0 0.00 0.00 0.00 77 1013.9
20260905063003 28 0 0.0 0.0 0.00 0.00 0.00 75 1013.9
20260905062504 28 0 0.0 0.0 0.00 0.00 0.00 74 1014.0
20260905062004 28 0 0.0 0.0 0.00 0.00 0.00 74 1013.9
20260905061504 28 0 0.0 0.0 0.00 0.00 0.00 74 1013.9
20260905061004 28 0 0.0 0.0 0.00 0.00 0.00 74 1013.9
20260905060504 28 209 0.0 3.2 0.00 0.00 0.00 73 1013.8
20260905060001 28 209 0.0 3.2 0.00 0.00 0.00 73 1013.8
20260905055001 28 209 0.0 1.6 0.00 0.00 0.00 73 1013.7
20260905054501 28 202 0.0 3.2 0.00 0.00 0.00 72 1013.6
20260905054001 28 200 0.0 4.8 0.00 0.00 0.00 72 1013.4
20260905053501 28 201 0.0 4.8 0.00 0.00 0.00 72 1013.5
20260905053002 29 203 0.0 3.2 0.00 0.00 0.00 72 1013.4
20260905052501 29 194 1.6 3.2 0.00 0.00 0.00 72 1013.4
20260905052001 29 179 0.0 3.2 0.00 0.00 0.00 72 1013.4
20260905051501 29 189 0.0 4.8 0.00 0.00 0.00 71 1013.3
20260905051002 29 203 0.0 4.8 0.00 0.00 0.00 71 1013.3
20260905050502 29 206 1.6 4.8 0.00 0.00 0.00 71 1013.3
20260905050002 29 204 1.6 4.8 0.00 0.00 0.00 71 1013.2
20260905045501 29 199 1.6 6.4 0.00 0.00 0.00 71 1013.3
20260905045001 29 189 0.0 6.4 0.00 0.00 0.00 71 1013.3
20260905044503 30 182 0.0 4.8 0.00 0.00 0.00 70 1013.4
20260905044002 30 177 0.0 4.8 0.00 0.00 0.00 70 1013.4
20260905043001 30 181 1.6 6.4 0.00 0.00 0.00 70 1013.3
20260905042501 30 183 1.6 6.4 0.00 0.00 0.00 69 1013.4
20260905042001 30 179 0.0 4.8 0.00 0.00 0.00 69 1013.4
20260905041502 30 183 1.6 4.8 0.00 0.00 0.00 69 1013.5
20260905040501 30 184 1.6 6.4 0.00 0.00 0.00 68 1013.5
20260905040001 30 190 1.6 6.4 0.00 0.00 0.00 68 1013.5
20260905035501 30 188 0.0 4.8 0.00 0.00 0.00 68 1013.5
20260905035002 30 173 0.0 3.2 0.00 0.00 0.00 67 1013.6
20260905034501 30 172 0.0 3.2 0.00 0.00 0.00 67 1013.5
20260905033501 30 165 0.0 3.2 0.00 0.00 0.00 66 1013.5
20260905033002 30 174 1.6 4.8 0.00 0.00 0.00 66 1013.5
20260905032502 30 182 1.6 4.8 0.00 0.00 0.00 65 1013.5
20260905032001 30 183 0.0 3.2 0.00 0.00 0.00 65 1013.4
20260905031501 30 177 0.0 3.2 0.00 0.00 0.00 65 1013.5
20260905031001 31 172 0.0 3.2 0.00 0.00 0.00 64 1013.4
20260905030501 31 170 0.0 1.6 0.00 0.00 0.00 64 1013.4
20260905025501 31 171 1.6 4.8 0.00 0.00 0.00 63 1013.3
20260905025002 31 170 1.6 4.8 0.00 0.00 0.00 63 1013.2
20260905024501 31 173 1.6 4.8 0.00 0.00 0.00 63 1013.2
20260905024002 31 173 0.0 4.8 0.00 0.00 0.00 62 1013.0
20260905023501 31 168 1.6 4.8 0.00 0.00 0.00 62 1013.0
20260905023002 31 165 1.6 4.8 0.00 0.00 0.00 62 1012.9
20260905022501 31 166 0.0 4.8 0.00 0.00 0.00 63 1012.8
20260905022002 31 164 0.0 3.2 0.00 0.00 0.00 62 1012.7
20260905021502 31 162 0.0 3.2 0.00 0.00 0.00 62 1012.5
20260905021001 32 168 0.0 3.2 0.00 0.00 0.00 61 1012.5
20260905020502 32 166 1.6 4.8 0.00 0.00 0.00 61 1012.5
20260905020001 32 168 1.6 4.8 0.00 0.00 0.00 61 1012.3
20260905015502 32 166 1.6 4.8 0.00 0.00 0.00 60 1012.2
20260905015001 32 164 1.6 4.8 0.00 0.00 0.00 60 1012.2
20260905014502 32 165 1.6 4.8 0.00 0.00 0.00 60 1012.1
20260905014001 32 163 1.6 4.8 0.00 0.00 0.00 60 1012.1
20260905013501 32 162 1.6 4.8 0.00 0.00 0.00 60 1012.0
20260905013001 32 165 1.6 4.8 0.00 0.00 0.00 59 1012.0
20260905012501 32 168 1.6 8.0 0.00 0.00 0.00 59 1011.9
20260905011501 32 166 1.6 6.4 0.00 0.00 0.00 58 1011.9
20260905010501 33 162 1.6 6.4 0.00 0.00 0.00 59 1011.8
20260905010002 33 162 1.6 8.0 0.00 0.00 0.00 58 1011.8
20260905005502 33 161 1.6 8.0 0.00 0.00 0.00 57 1011.8
20260905005002 33 153 1.6 8.0 0.00 0.00 0.00 57 1011.6
20260905003502 34 156 1.6 6.4 0.00 0.00 0.00 56 1011.5
20260905003002 34 155 1.6 8.0 0.00 0.00 0.00 55 1011.6
20260905002502 34 159 1.6 8.0 0.00 0.00 0.00 55 1011.5
20260905002002 35 157 1.6 9.7 0.00 0.00 0.00 53 1011.4
20260905001502 35 156 1.6 9.7 0.00 0.00 0.00 53 1011.3
20260905001002 35 152 1.6 6.4 0.00 0.00 0.00 53 1011.5
20260905000501 36 154 1.6 9.7 0.00 0.00 0.00 53 1011.5
20260905000002 36 161 1.6 9.7 0.00 0.00 0.00 53 1011.4
20260904235502 36 157 3.2 8.0 0.00 0.00 0.00 51 1011.4
20260904235001 36 155 1.6 9.7 0.00 0.00 0.00 52 1011.4
20260904234502 36 156 1.6 9.7 0.00 0.00 0.00 51 1011.4
20260904233002 36 151 1.6 8.0 0.00 0.00 0.00 51 1011.2
20260904232502 36 154 1.6 9.7 0.00 0.00 0.00 52 1011.2
20260904232002 36 155 3.2 9.7 0.00 0.00 0.00 52 1011.2
20260904231501 36 151 1.6 9.7 0.00 0.00 0.00 53 1011.3
20260904231001 36 149 0.0 6.4 0.00 0.00 0.00 52 1011.3